Hourly Weather Kozoevo

Today, 20 October, Tuesday

Time Temperature Precipitation Wind Pressure Humidity
00:00 -1°C° 0.4 mm 5 mps 740 mmHg 91%
01:00 -1°C° 0.4 mm 5 mps 740 mmHg 90%
02:00 -1°C° 0.4 mm 5 mps 740 mmHg 90%
03:00 -1°C° 0 mm 5 mps 740 mmHg 89%
04:00 -1°C° 0 mm 5 mps 740 mmHg 87%
05:00 -1°C° 0 mm 5 mps 741 mmHg 86%
06:00 -1°C° 0 mm 4 mps 741 mmHg 86%
07:00 -1°C° 0 mm 4 mps 741 mmHg 86%
08:00 -1°C° 0 mm 4 mps 742 mmHg 86%
09:00 0°C° 0 mm 4 mps 742 mmHg 86%
10:00 0°C° 0 mm 4 mps 743 mmHg 86%
11:00 0°C° 0 mm 4 mps 743 mmHg 85%
12:00 +1°C° 0.1 mm 4 mps 744 mmHg 84%
13:00 +1°C° 0.1 mm 5 mps 744 mmHg 82%
14:00 +1°C° 0.1 mm 5 mps 745 mmHg 81%
15:00 0°C° 0 mm 5 mps 745 mmHg 83%
16:00 0°C° 0 mm 5 mps 746 mmHg 86%
17:00 -1°C° 0 mm 5 mps 746 mmHg 89%
18:00 -1°C° 0 mm 5 mps 747 mmHg 88%
19:00 -2°C° 0 mm 4 mps 747 mmHg 87%
20:00 -2°C° 0 mm 4 mps 748 mmHg 85%
21:00 -2°C° 0 mm 4 mps 748 mmHg 86%
22:00 -3°C° 0 mm 4 mps 748 mmHg 87%
23:00 -3°C° 0 mm 4 mps 749 mmHg 88%

Tomorrow, 21 October, Wednesday

Time Temperature Precipitation Wind Pressure Humidity
00:00 -3°C° 0 mm 4 mps 749 mmHg 90%
01:00 -3°C° 0 mm 4 mps 749 mmHg 91%
02:00 -3°C° 0 mm 4 mps 750 mmHg 93%
03:00 -3°C° 0 mm 4 mps 750 mmHg 93%
04:00 -4°C° 0 mm 4 mps 750 mmHg 93%
05:00 -4°C° 0 mm 3 mps 750 mmHg 92%
06:00 -3°C° 0 mm 4 mps 750 mmHg 90%
07:00 -3°C° 0 mm 4 mps 750 mmHg 88%
08:00 -3°C° 0 mm 4 mps 750 mmHg 86%
09:00 -1°C° 0 mm 3 mps 750 mmHg 82%
10:00 0°C° 0 mm 3 mps 750 mmHg 78%
11:00 +1°C° 0 mm 3 mps 750 mmHg 73%
12:00 +2°C° 0 mm 2 mps 750 mmHg 73%
13:00 +2°C° 0 mm 2 mps 750 mmHg 73%
14:00 +2°C° 0 mm 2 mps 750 mmHg 73%
15:00 +1°C° 0 mm 2 mps 750 mmHg 78%
16:00 +2°C° 0 mm 1 mps 750 mmHg 82%
17:00 +1°C° 0 mm 1 mps 750 mmHg 87%
18:00 0°C° 0 mm 0 mps 750 mmHg 88%
19:00 -1°C° 0 mm 0 mps 750 mmHg 88%
20:00 -1°C° 0 mm 0 mps 750 mmHg 89%
21:00 -1°C° 0 mm 0 mps 750 mmHg 90%
22:00 0°C° 0 mm 1 mps 750 mmHg 91%
23:00 0°C° 0 mm 1 mps 750 mmHg 91%

Day after tomorrow, 22 October, Thursday

Time Temperature Precipitation Wind Pressure Humidity
00:00 0°C° 0 mm 1 mps 750 mmHg 92%
01:00 0°C° 0 mm 1 mps 750 mmHg 92%
02:00 0°C° 0 mm 1 mps 750 mmHg 93%
03:00 0°C° 0 mm 1 mps 750 mmHg 93%
04:00 -1°C° 0 mm 2 mps 750 mmHg 93%
05:00 -1°C° 0 mm 2 mps 750 mmHg 94%
06:00 -1°C° 0 mm 2 mps 749 mmHg 94%
07:00 +1°C° 0 mm 2 mps 749 mmHg 94%
08:00 0°C° 0 mm 3 mps 749 mmHg 94%
09:00 +1°C° 0 mm 3 mps 749 mmHg 94%
10:00 +1°C° 0 mm 3 mps 749 mmHg 95%
11:00 +2°C° 0 mm 3 mps 748 mmHg 95%
12:00 +1°C° 0 mm 4 mps 748 mmHg 93%
13:00 +3°C° 0 mm 4 mps 748 mmHg 92%
14:00 +3°C° 0 mm 4 mps 747 mmHg 90%
15:00 +3°C° 0.1 mm 4 mps 746 mmHg 91%
16:00 +3°C° 0.1 mm 4 mps 746 mmHg 92%
17:00 +1°C° 0.1 mm 4 mps 745 mmHg 93%
18:00 +2°C° 0.7 mm 5 mps 744 mmHg 94%
19:00 +2°C° 0.7 mm 5 mps 744 mmHg 95%
20:00 +2°C° 0.7 mm 5 mps 743 mmHg 96%
21:00 +2°C° 0.8 mm 5 mps 743 mmHg 96%
22:00 +2°C° 0.8 mm 5 mps 742 mmHg 97%
23:00 +3°C° 0.8 mm 4 mps 742 mmHg 97%

23 October, Friday

Time Temperature Precipitation Wind Pressure Humidity
00:00 +4°C° 0.7 mm 4 mps 741 mmHg 97%
01:00 +5°C° 0.7 mm 4 mps 741 mmHg 98%
02:00 +5°C° 0.7 mm 4 mps 741 mmHg 98%
03:00 +6°C° 0.3 mm 4 mps 741 mmHg 96%
04:00 +7°C° 0.3 mm 4 mps 741 mmHg 95%
05:00 +8°C° 0.3 mm 4 mps 741 mmHg 94%
06:00 +8°C° 0 mm 4 mps 741 mmHg 94%
07:00 +7°C° 0 mm 4 mps 741 mmHg 94%
08:00 +7°C° 0 mm 4 mps 741 mmHg 94%
09:00 +7°C° 0.7 mm 4 mps 740 mmHg 95%
10:00 +8°C° 0.7 mm 4 mps 740 mmHg 96%
11:00 +8°C° 0.7 mm 4 mps 740 mmHg 96%
12:00 +8°C° 0.9 mm 4 mps 739 mmHg 95%
13:00 +9°C° 0.9 mm 5 mps 739 mmHg 93%
14:00 +9°C° 0.9 mm 5 mps 738 mmHg 92%
15:00 +9°C° 0 mm 5 mps 738 mmHg 92%
16:00 +10°C° 0 mm 5 mps 737 mmHg 91%
17:00 +10°C° 0 mm 5 mps 737 mmHg 90%
18:00 +10°C° 0.6 mm 5 mps 737 mmHg 92%
19:00 +10°C° 0.6 mm 5 mps 737 mmHg 93%
20:00 +10°C° 0.6 mm 5 mps 736 mmHg 94%
21:00 +10°C° 0.4 mm 5 mps 736 mmHg 94%
22:00 +10°C° 0.4 mm 4 mps 736 mmHg 94%
23:00 +10°C° 0.4 mm 4 mps 736 mmHg 94%

24 October, Saturday

Time Temperature Precipitation Wind Pressure Humidity
00:00 +10°C° 0 mm 4 mps 736 mmHg 94%
01:00 +10°C° 0 mm 4 mps 736 mmHg 94%
02:00 +10°C° 0 mm 4 mps 735 mmHg 93%
03:00 +10°C° 0.3 mm 4 mps 735 mmHg 93%
04:00 +10°C° 0.3 mm 4 mps 735 mmHg 93%
05:00 +10°C° 0.3 mm 4 mps 735 mmHg 93%
06:00 +8°C° 0.3 mm 5 mps 735 mmHg 91%
07:00 +8°C° 0.3 mm 5 mps 736 mmHg 88%
08:00 +8°C° 0.3 mm 5 mps 736 mmHg 86%
09:00 +8°C° 0 mm 5 mps 737 mmHg 80%
10:00 +8°C° 0 mm 6 mps 738 mmHg 74%
11:00 +8°C° 0 mm 6 mps 739 mmHg 68%
12:00 +8°C° 0 mm 5 mps 739 mmHg 69%
13:00 +8°C° 0 mm 5 mps 739 mmHg 70%
14:00 +8°C° 0 mm 4 mps 740 mmHg 70%
15:00 +8°C° 0 mm 3 mps 740 mmHg 74%
16:00 +7°C° 0 mm 2 mps 740 mmHg 78%
17:00 +8°C° 0 mm 1 mps 740 mmHg 83%
18:00 +7°C° 0 mm 1 mps 740 mmHg 84%
19:00 +7°C° 0 mm 1 mps 740 mmHg 85%
20:00 +7°C° 0 mm 1 mps 740 mmHg 86%
21:00 +7°C° 0 mm 1 mps 740 mmHg 87%
22:00 +7°C° 0 mm 1 mps 740 mmHg 88%
23:00 +7°C° 0 mm 1 mps 740 mmHg 88%

25 October, Sunday

Time Temperature Precipitation Wind Pressure Humidity
00:00 +6°C° 0 mm 1 mps 739 mmHg 89%
01:00 +6°C° 0 mm 1 mps 739 mmHg 91%
02:00 +6°C° 0 mm 1 mps 739 mmHg 92%
03:00 +6°C° 0 mm 1 mps 739 mmHg 92%
04:00 +5°C° 0 mm 0 mps 738 mmHg 92%
05:00 +5°C° 0 mm 0 mps 738 mmHg 92%
06:00 +5°C° 0 mm 0 mps 738 mmHg 91%
07:00 +7°C° 0 mm 1 mps 738 mmHg 91%
08:00 +7°C° 0 mm 1 mps 738 mmHg 90%
09:00 +7°C° 0 mm 1 mps 738 mmHg 88%
10:00 +8°C° 0 mm 1 mps 739 mmHg 87%
11:00 +8°C° 0 mm 1 mps 739 mmHg 85%
12:00 +8°C° 0 mm 1 mps 739 mmHg 85%
13:00 +7°C° 0 mm 2 mps 739 mmHg 85%
14:00 +7°C° 0 mm 2 mps 739 mmHg 85%
15:00 +5°C° 0.2 mm 3 mps 739 mmHg 87%
16:00 +5°C° 0.2 mm 3 mps 740 mmHg 89%
17:00 +4°C° 0.2 mm 3 mps 740 mmHg 90%
18:00 +4°C° 0.1 mm 4 mps 741 mmHg 88%
19:00 +4°C° 0.1 mm 4 mps 741 mmHg 86%
20:00 +2°C° 0.1 mm 5 mps 742 mmHg 84%
21:00 +1°C° 0 mm 4 mps 742 mmHg 86%
22:00 +1°C° 0 mm 4 mps 742 mmHg 88%
23:00 +1°C° 0 mm 3 mps 743 mmHg 90%

26 October, Monday

Time Temperature Precipitation Wind Pressure Humidity
00:00 +1°C° 0 mm 3 mps 743 mmHg 91%
01:00 0°C° 0 mm 3 mps 743 mmHg 92%
02:00 -1°C° 0 mm 4 mps 743 mmHg 93%
03:00 0°C° 0 mm 4 mps 743 mmHg 90%
04:00 0°C° 0 mm 4 mps 743 mmHg 86%
05:00 0°C° 0 mm 4 mps 744 mmHg 83%
06:00 +1°C° 0 mm 4 mps 744 mmHg 84%
07:00 +1°C° 0 mm 5 mps 744 mmHg 85%
08:00 +1°C° 0 mm 5 mps 744 mmHg 86%
09:00 0°C° 0.3 mm 5 mps 744 mmHg 88%
10:00 0°C° 0.3 mm 5 mps 744 mmHg 90%
11:00 0°C° 0.3 mm 5 mps 745 mmHg 91%
12:00 0°C° 0.2 mm 5 mps 745 mmHg 85%
13:00 -1°C° 0.2 mm 6 mps 745 mmHg 79%
14:00 +1°C° 0.2 mm 6 mps 746 mmHg 73%
15:00 -1°C° 0 mm 6 mps 747 mmHg 76%
16:00 -1°C° 0 mm 5 mps 747 mmHg 79%
17:00 -2°C° 0 mm 5 mps 748 mmHg 81%
18:00 -1°C° 0 mm 5 mps 749 mmHg 81%
19:00 -1°C° 0 mm 5 mps 750 mmHg 80%
20:00 -1°C° 0 mm 5 mps 750 mmHg 80%
21:00 -1°C° 0 mm 4 mps 751 mmHg 80%
22:00 -1°C° 0 mm 4 mps 751 mmHg 81%
23:00 -2°C° 0 mm 4 mps 752 mmHg 81%
Show more